[ hide orbit diagram ]
For accurate long-term ephemerides, please instead use our Horizons system.This orbit viewer was implemented using two-body methods, and hence should not be used for determining accurate long-term trajectories (over several years or decades) or planetary encounter circumstances.
[ revert to old Java-based viewer ]
Orbital Elements at Epoch 2458600.5 (2019-Apr-27.0) TDB
Reference: JPL 11 (heliocentric ecliptic J2000)
Element | Value | Uncertainty (1-sigma) | Units |
e | .0910680934312804 | 7.9265e-08 | |
a | 2.869842836610124 | 3.7882e-08 | au |
q | 2.608491721032622 | 2.0763e-07 | au |
i | 11.75688197596376 | 8.0168e-06 | deg |
node | 70.38240268149063 | 3.7304e-05 | deg |
peri | 74.2145773728577 | 6.3105e-05 | deg |
M | 57.8617697620095 | 5.1775e-05 | deg |
tp | 2458315.086303936055 (2018-Jul-15.58630394) | 0.00025348 | TDB |
period | 1775.76543209161 4.86 | 3.516e-05 9.626e-08 | d yr |
n | .2027294785077379 | 4.014e-09 | deg/d |
Q | 3.131193952187625 | 4.1331e-08 | au |
|
| | Orbit Determination Parameters
Additional Information
|
[ show covariance matrix ]
Physical Parameter Table
Parameter |
Symbol |
Value |
Units |
Sigma |
Reference |
Notes |
absolute magnitude |
H |
15.7 |
|
n/a |
MPO433391 |
|
|
212888 (2007 VU284) Discovered 2007-Nov-14 by Spacewatch at Kitt Peak |
Reference: 20090409/Numbers.arc | Last Updated: 2009-04-10 |
|
[ show close-approach data ]
|